Overview Statistics Trail Chart Weather Telemetry Raw packets
 

This is the latest recevied weather packets stored in our database for station/object IW2NIA-3. If no packets are shown the sender has not sent any weather packets the latest 10 day(s).

<< 1 2 3 4 5 >>
Time Temp. Humidity Pressure Rain* Wind** Luminosity Snow
1788644010 25° C 55% 1018.3 hPa 0 mm - - -
1788643127 25° C 57% 1018.3 hPa 0 mm - - -
1788642223 25.56° C 54% 1018.2 hPa 0 mm - - -
1788641320 25.56° C 56% 1017.9 hPa 0 mm - - -
1788640415 25.56° C 58% 1017.8 hPa 0 mm - - -
1788639509 25.56° C 59% 1017.7 hPa 0 mm - - -
1788638625 26.11° C 58% 1017.5 hPa 0 mm - - -
1788637715 26.67° C 57% 1017.4 hPa 0 mm - - -
1788636827 26.67° C 58% 1017.2 hPa 0 mm - - -
1788635923 26.11° C 68% 1017 hPa 0 mm - - -
1788635020 25.56° C 72% 1016.9 hPa 0 mm - - -
1788634126 26.11° C 71% 1016.7 hPa 0 mm - - -
1788633213 26.67° C 69% 1016.4 hPa 0 mm - - -
1788632311 27.22° C 66% 1016.3 hPa 0 mm - - -
1788631447 27.78° C 64% 1016.2 hPa 0 mm - - -
1788630524 28.33° C 61% 1016 hPa 0 mm - - -
1788629615 28.89° C 60% 1015.8 hPa 0 mm - - -
1788628710 29.44° C 58% 1015.8 hPa 0 mm - - -
1788627812 29.44° C 58% 1015.8 hPa 0 mm - - -
1788626911 30° C 59% 1015.8 hPa 0 mm - - -
1788626023 30.56° C 56% 1015.7 hPa 0 mm - - -
1788625114 30.56° C 55% 1015.6 hPa 0 mm - - -
1788624227 31.11° C 55% 1015.7 hPa 0 mm - - -
1788623325 31.11° C 55% 1015.7 hPa 0 mm - - -
1788622439 31.11° C 52% 1015.7 hPa 0 mm - - -

* Rain latest hour (hover to see other rain measurements)
** Current wind speed in m/s (hover to see current wind gust speed)